Weather reports worldwide

Advertisment
Benson, United Kingdom (3658): temperature & dewpoint: 16.01.2019 03:00:00 - 22.01.2019 03:00:00 (GMT)Benson, United Kingdom (3658): temperature -20cm & temperature -100cm: 16.01.2019 03:00:00 - 22.01.2019 03:00:00 (GMT)Benson, United Kingdom (3658): wind speed & gusts: 16.01.2019 03:00:00 - 22.01.2019 03:00:00 (GMT)Benson, United Kingdom (3658): wind direction: 16.01.2019 03:00:00 - 22.01.2019 03:00:00 (GMT)Benson, United Kingdom (3658): reduced air pressure: 16.01.2019 03:00:00 - 22.01.2019 03:00:00 (GMT)Benson, United Kingdom (3658): visibility: 16.01.2019 03:00:00 - 22.01.2019 03:00:00 (GMT)Benson, United Kingdom (3658): precipitation: 16.01.2019 03:00:00 - 22.01.2019 03:00:00 (GMT)
Date & Time tt [°C] td [°C] tt -20cm [°C] tt -100cm [°C] ff [km/h] ff [kn] fx [km/h] fx [kn] dd ppp [hPa] vv [km] rr [mm]
22.01.2019 03:00:00 - - - - - - - - - - - -
22.01.2019 02:00:00 5,6 3,9 - - 18 10 - - SW 1005,1 10 0,8
22.01.2019 01:00:00 5,7 5,0 - - 22 12 - - S 1006,3 5 1,6
22.01.2019 00:00:00 5,5 4,8 - - 22 12 - - S 1007,6 7 0,8
21.01.2019 23:00:00 5,1 4,3 - - 28 15 - - S 1009,1 9 0,0
21.01.2019 22:00:00 4,3 3,5 - - 26 14 - - SSE 1010,9 8 0,0
21.01.2019 21:00:00 3,7 2,7 - - 28 15 - - S 1012,9 10 0,0
21.01.2019 20:00:00 3,8 1,7 - - 21 11 - - S 1014,4 10 0,0
21.01.2019 19:00:00 3,6 0,9 - - 24 13 - - S 1015,5 10 0,0
21.01.2019 18:00:00 3,5 0,7 - - 15 8 - - S 1017,2 10 0,0
21.01.2019 17:00:00 3,8 0,3 - - 15 8 - - S 1018,5 20 0,0
21.01.2019 16:00:00 4,0 0,1 - - 16 9 - - SSW 1019,4 10 0,0
21.01.2019 15:00:00 4,7 -0,2 - - 16 9 - - SSW 1019,9 10 0,0
21.01.2019 14:00:00 5,5 1,0 - - 18 10 - - S 1021,0 10 0,0
21.01.2019 13:00:00 5,3 2,4 - - 13 7 - - S 1022,1 10 0,0
21.01.2019 12:00:00 4,8 2,7 - - 8 4 - - SSW 1023,1 7 0,0
21.01.2019 11:00:00 3,7 2,4 - - 0 0 - - N 1024,2 5 0,0
21.01.2019 10:00:00 3,0 2,2 - - 8 4 - - SSE 1024,9 4,5 0,0
21.01.2019 09:00:00 2,2 1,6 5,0 7,4 2 1 - - WNW 1025,0 4,0 0,0
21.01.2019 08:00:00 1,8 1,3 - - 0 0 - - N 1024,8 3,5 0,0
21.01.2019 07:00:00 1,8 1,3 - - 0 0 - - N 1024,8 3,5 0,0
21.01.2019 06:00:00 1,8 1,3 - - 2 1 - - SSE 1024,7 3,0 0,0
21.01.2019 05:00:00 2,0 1,4 - - 2 1 - - WNW 1025,0 3,4 0,0
21.01.2019 04:00:00 2,0 1,3 - - 0 0 - - N 1024,7 3,6 0,0
21.01.2019 03:00:00 2,1 1,3 - - 0 0 - - N 1025,0 4,1 0,0
21.01.2019 02:00:00 2,2 1,3 - - 4 2 - - NW 1025,1 4,4 0,0
21.01.2019 01:00:00 2,8 1,8 - - 4 2 - - WNW 1025,0 5 0,0
21.01.2019 00:00:00 2,5 1,5 - - 0 0 - - N 1024,6 5 0,0
20.01.2019 23:00:00 2,9 1,7 - - 0 0 - - N 1024,4 6 0,0
20.01.2019 22:00:00 3,2 1,4 - - 0 0 - - N 1024,2 7 0,0
20.01.2019 21:00:00 2,8 1,3 - - 0 0 - - N 1023,4 7 0,0
20.01.2019 20:00:00 3,3 1,4 - - 4 2 - - NW 1023,1 7 0,0
20.01.2019 19:00:00 3,0 1,2 - - 2 1 - - N 1022,5 8 0,0
20.01.2019 18:00:00 3,1 1,1 - - 2 1 - - NW 1021,8 7 0,0
20.01.2019 17:00:00 3,1 0,1 - - 2 1 - - NNW 1021,1 11 0,0
20.01.2019 16:00:00 2,9 -1,1 - - 5 3 - - NNW 1020,6 13 0,0
20.01.2019 15:00:00 4,1 -0,8 - - 8 4 - - N 1019,8 14 0,0
20.01.2019 14:00:00 4,2 -0,2 - - 9 5 - - N 1019,3 14 0,0
20.01.2019 13:00:00 3,6 0,5 - - 5 3 - - N 1019,2 10 0,0
20.01.2019 12:00:00 2,4 0,4 - - 5 3 - - NNW 1019,1 8 0,0
20.01.2019 11:00:00 0,7 -0,3 - - 2 1 - - NNW 1018,8 6 0,0
20.01.2019 10:00:00 -0,4 -0,7 - - 2 1 - - N 1018,3 5 0,0
20.01.2019 09:00:00 -2,5 -2,8 5,4 7,5 0 0 - - N 1017,4 4,2 0,0
20.01.2019 08:00:00 -2,8 -3,1 - - 4 2 - - N 1016,3 4,2 0,0
20.01.2019 07:00:00 -4,2 -4,6 - - 0 0 - - N 1015,3 3,8 0,0
20.01.2019 06:00:00 -2,5 -2,7 - - 5 3 - - N 1014,4 3,4 0,0
20.01.2019 05:00:00 -3,0 -3,5 - - 4 2 - - N 1013,9 0,7 0,0
20.01.2019 04:00:00 -2,3 -2,9 - - 0 0 - - N 1013,3 3,5 0,0
20.01.2019 03:00:00 -1,9 -2,6 - - 9 5 - - E 1013,0 7 0,0
20.01.2019 02:00:00 1,3 -0,8 - - 5 3 - - E 1012,5 10 0,0
20.01.2019 01:00:00 3,3 1,0 - - 0 0 - - N 1012,1 10 0,0
20.01.2019 00:00:00 3,3 1,4 - - 9 5 - - E 1011,7 10 0,0
19.01.2019 23:00:00 3,4 2,0 - - 8 4 - - E 1011,4 12 0,0
19.01.2019 22:00:00 3,8 2,1 - - 21 11 - - E 1010,8 10 0,0
19.01.2019 21:00:00 3,6 2,5 - - 15 8 - - E 1010,1 9 0,0
19.01.2019 20:00:00 4,5 3,4 - - 15 8 - - ESE 1009,5 8 0,0
19.01.2019 19:00:00 4,5 3,9 - - 15 8 - - ESE 1009,2 7 0,0
19.01.2019 18:00:00 4,5 4,1 - - 13 7 - - E 1008,8 2,8 0,0
19.01.2019 17:00:00 4,8 4,3 - - 16 9 - - ESE 1008,3 5 0,0
19.01.2019 16:00:00 4,9 4,2 - - 13 7 - - ESE 1007,9 6 0,0
19.01.2019 15:00:00 4,8 4,1 - - 15 8 - - E 1007,7 4,2 0,0
19.01.2019 14:00:00 5,1 4,0 - - 21 11 - - ESE 1007,7 9 0,0
19.01.2019 13:00:00 4,9 3,7 - - 22 12 - - ESE 1007,9 10 0,0
19.01.2019 12:00:00 4,5 3,4 - - 22 12 - - ESE 1008,2 10 0,0
19.01.2019 11:00:00 4,2 3,2 - - 22 12 - - ESE 1008,7 12 0,0
19.01.2019 10:00:00 3,7 2,8 - - 24 13 - - ESE 1008,7 9 0,0
19.01.2019 09:00:00 3,7 2,7 5,2 7,7 22 12 - - ESE 1008,5 10 0,0
19.01.2019 08:00:00 3,5 2,7 - - 26 14 - - ESE 1008,2 8 0,0
19.01.2019 07:00:00 3,5 2,4 - - 22 12 - - SE 1008,2 10 0,0
19.01.2019 06:00:00 3,9 2,4 - - 22 12 - - SE 1008,4 21 0,0
19.01.2019 05:00:00 3,6 1,9 - - 22 12 - - SE 1008,6 17 0,0
19.01.2019 04:00:00 3,6 1,5 - - 22 12 - - SE 1009,0 23 0,0
19.01.2019 03:00:00 3,4 1,5 - - 22 12 - - SE 1009,6 24 0,2
19.01.2019 02:00:00 3,4 1,6 - - 18 10 - - SE 1010,2 13 0,4
19.01.2019 01:00:00 3,4 1,2 - - 21 11 - - SSE 1010,6 11 0,0
19.01.2019 00:00:00 3,6 0,2 - - 22 12 - - SE 1011,1 10 0,0
18.01.2019 23:00:00 3,2 -0,2 - - 16 9 - - SE 1011,3 29 0,0
18.01.2019 22:00:00 2,9 -0,6 - - 21 11 - - SE 1011,5 10 0,0
18.01.2019 21:00:00 2,9 -1,0 - - 22 12 - - SE 1011,7 10 0,0
18.01.2019 20:00:00 2,9 -1,0 - - 21 11 - - SE 1012,0 30 0,0
18.01.2019 19:00:00 3,5 -1,1 - - 22 12 - - SE 1012,2 30 0,0
18.01.2019 18:00:00 3,8 -1,2 - - 24 13 - - SSE 1012,4 10 0,0
18.01.2019 17:00:00 4,5 -0,8 - - 28 15 - - SSE 1012,8 10 0,0
18.01.2019 16:00:00 4,9 -0,6 - - 26 14 48 26 SSE 1013,2 10 0,0
18.01.2019 15:00:00 5,4 -0,6 - - 29 16 - - SSE 1013,6 10 0,0
18.01.2019 14:00:00 5,8 0,2 - - 28 15 - - SSE 1014,2 10 0,0
18.01.2019 13:00:00 5,0 0,3 - - 21 11 - - SSE 1014,9 10 0,0
18.01.2019 12:00:00 4,2 -0,3 - - 21 11 - - SSE 1015,8 30 0,0
18.01.2019 11:00:00 2,9 -0,7 - - 18 10 - - SE 1016,6 10 0,0
18.01.2019 10:00:00 1,7 -1,4 - - 16 9 - - SE 1017,0 30 0,0
18.01.2019 09:00:00 0,6 -2,3 5,7 7,7 18 10 - - SE 1017,1 10 0,0
18.01.2019 08:00:00 0,6 -2,4 - - 16 9 - - SE 1017,2 10 0,0
18.01.2019 07:00:00 -0,8 -3,7 - - 8 4 - - SSE 1017,6 10 0,0
18.01.2019 06:00:00 -1,9 -3,8 - - 8 4 - - SSE 1017,9 10 0,0
18.01.2019 05:00:00 -3,1 -4,5 - - 5 3 - - SSE 1018,4 25 0,0
18.01.2019 04:00:00 -1,5 -3,0 - - 8 4 - - SSW 1018,8 10 0,0
18.01.2019 03:00:00 -2,6 -3,8 - - 4 2 - - SE 1019,2 24 0,0
18.01.2019 02:00:00 -2,3 -3,3 - - 5 3 - - ESE 1019,3 10 0,0
18.01.2019 01:00:00 -3,5 -4,1 - - 8 4 - - E 1019,6 10 0,0
18.01.2019 00:00:00 -3,6 -4,5 - - 4 2 - - E 1019,7 17 0,0
17.01.2019 23:00:00 -3,5 -4,7 - - 0 0 - - N 1019,7 10 0,0
17.01.2019 22:00:00 -3,5 -4,4 - - 2 1 - - NNE 1019,5 10 0,0
17.01.2019 21:00:00 -3,5 -4,5 - - 0 0 - - N 1019,3 25 0,0
17.01.2019 20:00:00 -3,4 -5,7 - - 2 1 - - S 1019,2 25 0,0
17.01.2019 19:00:00 -2,1 -5,0 - - 2 1 - - E 1018,5 10 0,0
17.01.2019 18:00:00 -2,6 -4,1 - - 4 2 - - NW 1017,9 30 0,0
17.01.2019 17:00:00 1,3 -3,8 - - 0 0 - - N 1017,4 10 0,0
17.01.2019 16:00:00 3,2 -3,5 - - 9 5 - - NW 1016,2 35 0,0
17.01.2019 15:00:00 4,5 -3,7 - - 21 11 - - NW 1015,4 10 0,0
17.01.2019 14:00:00 4,6 -2,8 - - 18 10 - - NW 1014,5 10 0,0
17.01.2019 13:00:00 4,4 -2,6 - - 24 13 - - NW 1014,2 10 0,0
17.01.2019 12:00:00 3,5 -2,4 - - 21 11 - - NW 1013,8 40 0,0
17.01.2019 11:00:00 2,4 -2,3 - - 22 12 - - NW 1013,3 10 0,0
17.01.2019 10:00:00 1,4 -0,3 - - 9 5 - - NW 1012,3 10 0,0
17.01.2019 09:00:00 0,1 -0,9 6,5 7,7 8 4 - - NNW 1011,1 10 0,0
17.01.2019 08:00:00 0,8 -0,7 - - 26 14 48 26 NW 1009,7 1,5 0,6
17.01.2019 07:00:00 2,5 1,2 - - 13 7 - - WNW 1007,5 25 0,0
17.01.2019 06:00:00 2,0 1,1 - - 9 5 - - WNW 1006,6 10 0,0
17.01.2019 05:00:00 2,2 1,4 - - 8 4 - - WNW 1005,5 10 0,0
17.01.2019 04:00:00 3,3 2,2 - - 11 6 - - WNW 1004,9 10 0,0
17.01.2019 03:00:00 4,0 3,4 - - 13 7 - - WNW 1004,0 7 0,4
17.01.2019 02:00:00 4,2 3,3 - - 9 5 - - W 1003,1 10 0,0
17.01.2019 01:00:00 3,8 3,0 - - 5 3 - - SSW 1002,7 21 0,2
17.01.2019 00:00:00 3,7 2,9 - - 9 5 - - SSW 1002,7 10 0,0
16.01.2019 23:00:00 3,9 3,2 - - 13 7 - - S 1002,9 10 0,0
16.01.2019 22:00:00 2,9 2,6 - - 11 6 - - SSW 1003,2 13 0,0
16.01.2019 21:00:00 1,2 0,8 - - 13 7 - - S 1003,4 10 0,0
16.01.2019 20:00:00 2,0 1,3 - - 8 4 - - SSW 1003,3 10 0,0
16.01.2019 19:00:00 3,1 2,3 - - 4 2 - - S 1003,3 10 0,0
16.01.2019 18:00:00 4,5 3,9 - - 9 5 - - SW 1003,3 10 0,0
16.01.2019 17:00:00 5,0 4,1 - - 2 1 - - W 1002,9 10 0,2
16.01.2019 16:00:00 5,3 4,3 - - 15 8 - - WNW 1003,1 20 0,8
16.01.2019 15:00:00 6,1 5,2 - - 21 11 - - WNW 1002,7 6 0,4
16.01.2019 14:00:00 9,7 7,3 - - 16 9 - - WSW 1001,5 10 0,0
16.01.2019 13:00:00 9,7 7,6 - - 22 12 - - SSW 1002,3 10 0,0
16.01.2019 12:00:00 9,3 8,6 - - 16 9 - - SSW 1003,2 30 0,2
16.01.2019 11:00:00 9,1 8,3 - - 18 10 - - S 1004,3 10 0,2
16.01.2019 10:00:00 8,9 7,8 - - 21 11 - - S 1005,1 10 0,0
16.01.2019 09:00:00 9,0 7,5 6,5 7,7 21 11 - - SSW 1005,7 10 0,0
16.01.2019 08:00:00 8,6 7,5 - - 21 11 - - S 1006,1 30 0,0
16.01.2019 07:00:00 8,4 7,3 - - 21 11 - - S 1006,8 10 0,0
16.01.2019 06:00:00 8,1 7,2 - - 18 10 - - S 1007,5 10 0,0
16.01.2019 05:00:00 8,5 6,9 - - 21 11 - - SSW 1008,5 25 0,0
16.01.2019 04:00:00 8,7 6,7 - - 24 13 - - SSW 1009,4 10 0,0
16.01.2019 03:00:00 8,6 6,6 - - 22 12 - - SSW 1010,3 10 0,0

tt = temperature
td = dewpoint
tt -20cm = temperature -20cm
tt -100cm = temperature -100cm
ff = wind speed
fx = gusts
dd = wind direction
ppp = reduced air pressure
vv = visibility
rr = precipitation

Next stations